• Join FlightAware (Why Join?)
  • Login
  • US Flag GB Flag 
13:14 EDT


 

Airport Tracker/Info


-or-


 

Live Flight TrackerFlight Track Log ✈ TCF642 ✈ 10-Jul-2013 ✈ KORD - KMSY

Flight Track Log - Related Links

Times and Time Zones

All times are in EDT time to prevent confusion due to time zone crossing. See the TCF642 flight status page for this flight to view local times or setup timezone preferences in your user account.

Time Position Orientation Groundspeed Altitude Reporting Facility
EDT Latitude Longitude Course Direction KTS MPH feet Rate Location/Type
22:54 41.9833 -87.8667 191° South 169 194 2,000  Level Chicago TRACON
22:55 41.9333 -87.8167 143° Southeast 233 268 4,500 1,320 Climbing Chicago TRACON
22:57 41.8461 -87.7908 168° South 287 330 5,000 1,020 Climbing Chicago Center
22:58 41.7656 -87.7936 181° South 291 335 6,900 2,760 Climbing Chicago Center
22:59 41.6969 -87.8400 207° Southwest 279 321 10,700 3,300 Climbing Chicago Center
23:00 41.2487 -88.0738 191° South  Level Estimated
23:00 41.6200 -87.8892 206° Southwest 302 348 13,700  Level Chicago Center
23:01 41.5200 -87.9556 206° Southwest 346 398 15,700 2,040 Climbing Chicago Center
23:02 41.4314 -88.0147 207° Southwest 386 444 17,900 2,160 Climbing Chicago Center
23:03 41.3286 -88.0569 197° South 403 464 20,200 2,340 Climbing Chicago Center
23:04 41.1931 -88.1017 194° South 416 479 22,700 2,040 Climbing Chicago Center
23:05 41.0744 -88.1350 192° South 434 499 24,400 1,680 Climbing Chicago Center
23:06 40.9536 -88.1689 192° South 443 510 26,200 1,440 Climbing Chicago Center
23:07 40.8306 -88.2017 191° South 450 518 27,400 1,380 Climbing Chicago Center
23:08 40.7028 -88.2325 190° South 466 536 29,100 1,560 Climbing Chicago Center
23:09 40.5778 -88.2633 191° South 461 531 30,600 1,620 Climbing Chicago Center
23:10 40.4550 -88.2908 190° South 453 521 32,500 2,580 Climbing Chicago Center
23:11 40.3419 -88.3197 191° South 421 484 35,900 1,680 Climbing Chicago Center
23:12 40.2136 -88.3506 190° South 395 455 36,000  Climbing Chicago Center
23:13 40.1058 -88.3753 190° South 420 483 36,000  Level Chicago Center
23:14 39.9842 -88.4050 191° South 440 506 36,000  Level Chicago Center
23:15 39.8614 -88.4342 190° South 445 512 36,000  Level Chicago Center
23:16 39.7644 -88.4578 191° South 445 512 36,000  Level Kansas City Center
23:17 39.6225 -88.4906 190° South 446 513 36,000  Level Kansas City Center
23:18 39.4997 -88.5206 191° South 447 514 36,000  Level Kansas City Center
23:19 39.3781 -88.5500 191° South 445 512 36,000  Level Kansas City Center
23:20 39.2567 -88.5786 190° South 443 510 36,000  Level Kansas City Center
23:21 39.1350 -88.6072 190° South 443 510 36,000  Level Kansas City Center
23:22 38.9972 -88.6386 190° South 446 513 36,000  Level Kansas City Center
23:23 38.8758 -88.6681 191° South 445 512 36,000  Level Kansas City Center
23:24 38.7528 -88.6961 190° South 447 514 36,000  Level Kansas City Center
23:25 38.6281 -88.7236 190° South 450 518 36,000  Level Kansas City Center
23:26 38.4981 -88.7539 190° South 450 518 36,000  Level Kansas City Center
23:27 38.3769 -88.7814 190° South 445 512 36,000  Level Kansas City Center
23:28 38.2636 -88.8069 190° South 440 506 36,000  Level Kansas City Center
23:29 38.1431 -88.8344 190° South 439 505 36,000  Level Kansas City Center
23:30 38.0200 -88.8622 190° South 444 511 36,000  Level Kansas City Center
23:31 37.8992 -88.8892 190° South 443 510 36,000  Level Kansas City Center
23:32 37.7558 -88.9208 190° South 443 510 36,000  Level Kansas City Center
23:33 37.6342 -88.9481 190° South 442 509 36,000  Level Kansas City Center
23:34 37.5108 -88.9744 190° South 447 514 36,000  Level Kansas City Center
23:35 37.3886 -89.0044 191° South 446 513 36,000  Level Kansas City Center
23:36 37.2642 -89.0314 190° South 451 519 36,000  Level Kansas City Center
23:37 37.1394 -89.0600 190° South 453 521 36,000  Level Kansas City Center
23:38 37.0147 -89.0872 190° South 455 524 36,000  Level Kansas City Center
23:39 36.8900 -89.1142 190° South 455 524 36,000  Level Kansas City Center
23:40 36.7631 -89.1319 186° South 455 524 36,000  Level Kansas City Center
23:41 36.6331 -89.1289 179° South 460 529 36,000  Level Kansas City Center
23:42 36.5006 -89.1294 180° South 467 537 36,000  Level Kansas City Center
23:44 36.3297 -89.1281 180° South 479 551 36,000  Level Memphis Center
23:45 36.1964 -89.1328 182° South 479 551 36,000  Level Memphis Center
23:46 36.0692 -89.1397 183° South 472 543 36,000  Level Memphis Center
23:47 35.9419 -89.1442 182° South 472 543 36,000  Level Memphis Center
23:48 35.8128 -89.1514 183° South 467 537 36,000  Level Memphis Center
23:49 35.6797 -89.1839 191° South 455 524 36,000  Level Memphis Center
23:50 35.5547 -89.2189 193° South 450 518 36,000  Level Memphis Center
23:51 35.4258 -89.2511 192° South 457 526 36,000  Level Memphis Center
23:52 35.3114 -89.2783 191° South 470 541 36,000  Level Memphis Center
23:53 35.1844 -89.3103 192° South 470 541 36,000  Level Memphis Center
23:54 35.0594 -89.3397 191° South 470 541 36,000  Level Memphis Center
23:55 34.9303 -89.3742 192° South 470 541 36,000  Level Memphis Center
23:56 34.7867 -89.4064 190° South 470 541 36,000  Level Memphis Center
23:57 34.6597 -89.4431 193° South 470 541 36,000  Level Memphis Center
23:58 34.5306 -89.4747 191° South 470 541 36,000  Level Memphis Center
23:59 34.4014 -89.5089 192° South 470 541 36,000  Level Memphis Center
00:00 34.2764 -89.5428 193° South 470 541 36,000  Level Memphis Center
00:01 34.1578 -89.5714 191° South 470 541 36,000  Level Memphis Center
00:02 34.0306 -89.6028 192° South 470 541 36,000  Level Memphis Center
00:03 33.9033 -89.6339 191° South 469 540 36,000  Level Memphis Center
00:04 33.7783 -89.6700 194° South 469 540 36,000  Level Memphis Center
00:05 33.6514 -89.7008 191° South 469 540 36,000  Level Memphis Center
00:06 33.5219 -89.7317 191° South 474 545 36,000  Level Memphis Center
00:07 33.3947 -89.7625 191° South 474 545 36,000  Level Memphis Center
00:08 33.2656 -89.7933 191° South 469 540 36,000  Level Memphis Center
00:09 33.1425 -89.8239 192° South 469 540 36,000  Level Memphis Center
00:10 32.9925 -89.8594 191° South 469 540 36,000  Level Memphis Center
00:11 32.8631 -89.8850 189° South 488 562 36,000  Level Memphis Center
00:12 32.7317 -89.9225 194° South 488 562 36,000 -360 Level Memphis Center
00:13 32.6022 -89.9528 191° South 483 556 35,300 -4,020 Descending Memphis Center
00:14 32.4750 -89.9831 191° South 478 550 28,000 -1,200 Descending Memphis Center
00:15 32.3478 -90.0131 191° South 472 543 33,000 1,860 Climbing Memphis Center
00:16 32.2164 -90.0431 191° South 472 543 31,800 -1,200 Descending Memphis Center
00:18 31.9106 -90.1147 191° South 489 563 28,900 -1,140 Descending Houston Center
00:19 31.7764 -90.1481 192° South 493 567 28,000 -480 Descending Houston Center
00:20 31.6444 -90.1800 192° South 488 562 28,000  Level Houston Center
00:21 31.5106 -90.2103 191° South 491 565 28,000 -1,020 Level Houston Center
00:22 31.3775 -90.2408 191° South 489 563 26,000 -2,340 Descending Houston Center
00:23 31.2217 -90.2528 184° South 471 542 23,300 -2,400 Descending Houston Center
00:24 31.0972 -90.2431 176° South 452 520 21,200 -2,040 Descending Houston Center
00:25 30.9783 -90.2342 176° South 435 501 19,200 -1,980 Descending Houston Center
00:26 30.9156 -90.2303 177° South 427 491 18,200 -2,100 Descending Houston Center
00:26 30.8361 -90.2239 176° South 415 478 16,700 -2,040 Descending Houston Center
00:27 30.7486 -90.2169 176° South 412 474 15,200 -1,860 Descending Houston Center
00:28 30.6469 -90.2119 178° South 375 432 13,400 -1,980 Descending Houston Center
00:29 30.5492 -90.2128 180° South 360 414 11,300 -1,980 Descending Houston Center
00:30 30.4619 -90.2147 181° South 329 379 9,500 -2,040 Descending Houston Center
00:31 30.3825 -90.2153 180° South 301 346 7,200 -1,920 Descending Houston Center
00:32 30.2819 -90.2150 180° South 269 310 5,200 -1,440 Descending Houston Center
00:33 30.2383 -90.2144 179° South 254 292 4,400 -1,080 Descending Houston Center
00:34 30.1761 -90.2150 180° South 230 265 3,300 -1,020 Descending Houston Center
00:35 30.1258 -90.2156 181° South 202 232 2,400 -900 Descending Houston Center
00:36 30.0781 -90.2211 186° South 184 212 1,600 -900 Descending Houston Center
00:37 30.0336 -90.2367 197° South 175 201 700 -660 Descending Houston Center
00:38 29.9986 -90.2503 199° South 151 174 300 -420 Descending Houston Center
00:40 29.9833 -90.2500 190° South  Level FlightAware Approximate
00:47 29.9934 -90.2580 190° South  Level Estimated
00:48 29.9934 -90.2580 190° South  Level Estimated